Content
SEND FEEDBACK

Daily
Averages
Monthly
Summary
United States of America

DORSET, OHIO


Home > North America > United States > Ohio
Elevation: 980 feet     Latitude: 41 40N     Longitude: 080 40W

WEATHER
 
SELECT A DAY
Number of Records: 197,045;   Date Range: 12/2/98 - 12/19/14
 
SHARE

PRINT THIS DATA

[ ← Previous Day ]
WEATHER ALMANAC - JANUARY 31, 2013
[ Next Day → ]
[ °C ]   °F
Weather ElementAverageHighLow
Temperature23.6 °F37.4 °F (12:28 am)17.6 °F (11:33 pm)
Dewpoint16.5 °F32 °F (12:28 am)10.4 °F (11:21 pm)
Humidity74.6 %86 % (11:14 am)59 % (12:50 pm)
Barometer29.65 in29.85 in (9:53 pm)29.23 in (12:28 am)
Wind Speed18.6 mph29.9 mph (11:08 am)
Wind Gust39.1 mph (2:53 am)
Weather ElementAverage
Visibility2.5 mi
Wind DirectionSW (227.2 °)

Weather ElementTotal
Precipitation0.19 in
Heating Degree Days37.5 (Base 65)
Averaged from 115 records on January 31, 2013
WEATHER CONDITIONS BREAKOUT
WIND DIRECTION BREAKOUT
WEATHER BY HOUR - JANUARY 31, 2013
[ °C ]   °F
Local TimeTemperatureDewpointHumidityBarometerVisibilityWind DirectionWind SpeedGust SpeedPrecipitationEventsConditions
12:28 AM37.4 °F32.0 °F81 %29.23 in10.0 miWSW (250°)16.1 mph21.9 mph0.00 inRainLight Rain
12:53 AM37.0 °F30.9 °F79 %29.26 in10.0 miWest (260°)16.1 mph26.5 mph0.01 inRainLight Rain
1:02 AM35.6 °F30.2 °F81 %29.26 in8.0 miWSW (250°)16.1 mph23.0 mph0.01 inRainLight Rain
1:17 AM35.6 °F30.2 °F81 %29.26 in5.0 miWSW (250°)15.0 mph25.3 mph0.02 inSnowLight Snow
1:31 AM35.6 °F30.2 °F81 %29.26 in9.0 miWSW (240°)17.3 mph27.6 mph0.02 inSnowLight Snow
1:53 AM36.0 °F28.9 °F76 %29.28 in10.0 miWest (260°)25.3 mph35.7 mph0.02 inOvercast
2:53 AM33.1 °F23.0 °F66 %29.34 in10.0 miWest (270°)26.5 mph39.1 mph0.00 inOvercast
3:12 AM33.8 °F21.2 °F60 %29.35 in10.0 miNorthOvercast
3:53 AM32.0 °F19.9 °F61 %29.37 in10.0 miNorthOvercast
4:53 AM30.9 °F19.0 °F61 %29.40 in9.0 miNorth0.00 inSnowLight Snow
5:27 AM30.2 °F21.2 °F69 %29.41 in2.0 miNorth0.00 inSnowLight Snow
5:32 AM28.4 °F21.2 °F74 %29.41 in1.0 miNorth0.00 inSnowLight Snow
5:38 AM28.4 °F21.2 °F74 %29.42 in2.0 miNorth0.00 inSnowLight Snow
5:45 AM28.4 °F21.2 °F74 %29.42 in3.0 miNorth0.00 inSnowLight Snow
5:47 AM28.4 °F21.2 °F74 %29.43 in1.8 miNorth0.00 inSnowLight Snow
5:58 AM28.4 °F21.2 °F74 %29.43 in2.0 miNorth0.00 inSnowLight Snow
6:05 AM28.4 °F21.2 °F74 %29.43 in8.0 miNorth0.00 inSnowLight Snow
6:33 AM28.4 °F19.4 °F69 %29.45 in9.0 miNorth0.00 inOvercast
6:44 AM28.4 °F19.4 °F69 %29.47 in2.5 miNorth0.00 inSnowLight Snow
6:53 AM28.9 °F19.9 °F69 %29.49 in3.0 miNorth0.00 inSnowLight Snow
7:45 AM26.6 °F19.4 °F74 %29.52 in1.8 miNorth0.00 inSnowLight Snow
7:53 AM26.1 °F19.0 °F75 %29.54 in1.0 miNorth0.00 inSnowLight Snow
8:14 AM26.6 °F17.6 °F69 %29.53 inWest (270°)16.1 mph27.6 mph
8:53 AM26.1 °F18.0 °F71 %29.58 in1.8 miWest (260°)26.5 mph38.0 mph0.00 inSnowLight Snow
8:55 AM26.6 °F17.6 °F69 %29.57 in2.0 miWSW (250°)25.3 mph38.0 mph0.00 inSnowLight Snow
9:00 AM24.8 °F17.6 °F74 %29.58 in1.0 miWest (260°)21.9 mph33.4 mph0.00 inSnowLight Snow
9:07 AM24.8 °F17.6 °F74 %29.58 in0.5 miWest (270°)20.7 mph32.2 mph0.00 inSnowSnow
9:26 AM24.8 °F15.8 °F69 %29.59 in1.2 miWest (260°)24.2 mph35.7 mph0.00 inSnowLight Snow
9:36 AM24.8 °F17.6 °F74 %29.59 in0.8 miWest (260°)21.9 mph38.0 mph0.00 inSnowLight Snow
9:45 AM24.8 °F17.6 °F74 %29.60 in1.2 miWest (260°)24.2 mph35.7 mph0.00 inSnowLight Snow
9:50 AM24.8 °F17.6 °F74 %29.60 in2.0 miWest (260°)19.6 mph35.7 mph0.00 inSnowLight Snow
9:53 AM24.1 °F17.1 °F75 %29.62 in3.0 miWest (260°)19.6 mph29.9 mph0.00 inSnowLight Snow
10:18 AM24.8 °F15.8 °F69 %29.61 in2.5 miWest (270°)15.0 mph31.1 mph0.00 inSnowLight Snow
10:26 AM24.8 °F14.0 °F64 %29.61 in6.0 miWest (270°)20.7 mph34.5 mph0.00 inSnowLight Snow
10:29 AM24.8 °F14.0 °F64 %29.62 in2.0 miWest (260°)25.3 mph36.8 mph0.00 inSnowLight Snow
10:31 AM24.8 °F15.8 °F69 %29.62 in1.5 miWest (260°)27.6 mph36.8 mph0.00 inSnowLight Snow
10:34 AM24.8 °F15.8 °F69 %29.62 in1.0 miWest (270°)17.3 mph36.8 mph0.00 inSnowLight Snow
10:53 AM23.0 °F17.1 °F78 %29.65 in0.8 miWSW (250°)18.4 mph33.4 mph0.00 inSnowLight Snow
10:58 AM24.8 °F17.6 °F74 %29.63 in3.0 miWest (260°)16.1 mph25.3 mph0.00 inSnowLight Snow
11:08 AM24.8 °F15.8 °F69 %29.64 in1.8 miWest (260°)29.9 mph38.0 mph0.00 inSnowLight Snow
11:14 AM21.2 °F17.6 °F86 %29.64 in0.2 miWest (270°)24.2 mph38.0 mph0.00 inSnowHeavy Snow
11:22 AM21.2 °F17.6 °F86 %29.64 in0.2 miWest (260°)15.0 mph31.1 mph0.00 inSnowHeavy Snow
11:53 AM23.0 °F17.1 °F78 %29.67 in1.2 miWSW (250°)18.4 mph27.6 mph0.00 inSnowLight Snow
12:04 PM23.0 °F15.8 °F74 %29.65 in1.0 miWest (270°)21.9 mph31.1 mph0.00 inSnowLight Snow
12:11 PM21.2 °F17.6 °F86 %29.65 in0.2 miWest (270°)24.2 mph35.7 mph0.00 inSnowHeavy Snow
12:21 PM23.0 °F15.8 °F74 %29.65 in1.2 miWest (260°)24.2 mph32.2 mph0.00 inSnowLight Snow
12:25 PM23.0 °F15.8 °F74 %29.65 in3.0 miWSW (250°)21.9 mph32.2 mph0.00 inHaze
12:35 PM23.0 °F15.8 °F74 %29.65 in1.8 miWest (260°)25.3 mph34.5 mph0.00 inSnowLight Snow
12:42 PM23.0 °F14.0 °F68 %29.65 in1.5 miWest (270°)26.5 mph34.5 mph0.00 inSnowLight Snow
12:50 PM24.8 °F12.2 °F59 %29.65 in3.0 miWest (260°)25.3 mph34.5 mph0.00 inSnowLight Snow
12:53 PM24.1 °F12.9 °F62 %29.68 in5.0 miWest (260°)25.3 mph36.8 mph0.00 inSnowLight Snow
12:59 PM23.0 °F12.2 °F63 %29.66 in1.8 miWest (270°)29.9 mph39.1 mph0.00 inSnowLight Snow
1:11 PM24.8 °F12.2 °F59 %29.66 in3.0 miWest (260°)21.9 mph33.4 mph0.00 inSnowLight Snow
1:18 PM23.0 °F12.2 °F63 %29.66 in1.8 miWest (260°)27.6 mph35.7 mph0.00 inSnowLight Snow
1:24 PM23.0 °F14.0 °F68 %29.66 in0.8 miWest (260°)28.8 mph35.7 mph0.00 inSnowLight Snow
1:32 PM23.0 °F12.2 °F63 %29.67 in1.0 miWest (270°)25.3 mph39.1 mph0.00 inSnowLight Snow
1:37 PM21.2 °F14.0 °F74 %29.67 in1.0 miWest (260°)28.8 mph39.1 mph0.00 inSnowLight Snow
1:47 PM23.0 °F12.2 °F63 %29.67 in2.0 miWest (260°)26.5 mph35.7 mph0.00 inSnowLight Snow
1:53 PM23.0 °F14.0 °F68 %29.70 in2.0 miWest (260°)20.7 mph32.2 mph0.00 inSnowLight Snow
2:36 PM21.2 °F12.2 °F68 %29.69 in3.0 miWest (260°)20.7 mph28.8 mph0.00 inSnowLight Snow
2:53 PM21.9 °F10.9 °F63 %29.73 in7.0 miWest (260°)20.7 mph28.8 mph0.00 inSnowLight Snow
3:07 PM21.2 °F12.2 °F68 %29.71 in1.8 miWest (270°)20.7 mph34.5 mph0.00 inSnowLight Snow
3:11 PM21.2 °F14.0 °F74 %29.71 in0.8 miWSW (250°)20.7 mph32.2 mph0.00 inSnowLight Snow
3:16 PM21.2 °F12.2 °F68 %29.71 in1.0 miWSW (250°)17.3 mph25.3 mph0.00 inSnowLight Snow
3:19 PM21.2 °F14.0 °F74 %29.71 in1.2 miWSW (250°)17.3 mph25.3 mph0.00 inSnowLight Snow
3:23 PM21.2 °F14.0 °F74 %29.71 in0.8 miWest (260°)19.6 mph28.8 mph0.00 inSnowLight Snow
3:53 PM21.0 °F15.1 °F78 %29.75 in0.8 miWest (260°)15.0 mph25.3 mph0.00 inSnowLight Snow
4:07 PM21.2 °F15.8 °F80 %29.72 in1.2 miWSW (250°)15.0 mph24.2 mph0.00 inSnowLight Snow
4:19 PM21.2 °F14.0 °F74 %29.73 in2.5 miWSW (250°)21.9 mph27.6 mph0.00 inSnowLight Snow
4:23 PM21.2 °F12.2 °F68 %29.73 in4.0 miWest (270°)16.1 mph27.6 mph0.00 inSnowLight Snow
4:35 PM21.2 °F12.2 °F68 %29.73 in1.0 miWest (260°)23.0 mph32.2 mph0.00 inSnowLight Snow
4:43 PM21.2 °F15.8 °F80 %29.73 in0.5 miWSW (250°)15.0 mph23.0 mph0.00 inSnowSnow
4:51 PM21.2 °F15.8 °F80 %29.73 in0.8 miWest (260°)15.0 mph23.0 mph0.00 inSnowLight Snow
4:53 PM21.0 °F15.1 °F78 %29.77 in1.0 miWest (270°)16.1 mph23.0 mph0.00 inSnowLight Snow
4:57 PM21.2 °F15.8 °F80 %29.73 in2.0 miWest (260°)19.6 mph26.5 mph0.00 inSnowLight Snow
5:04 PM21.2 °F15.8 °F80 %29.74 in1.0 miWSW (250°)17.3 mph26.5 mph0.00 inSnowLight Snow
5:19 PM21.2 °F15.8 °F80 %29.74 in1.2 miWSW (250°)13.8 mph0.00 inSnowLight Snow
5:31 PM21.2 °F15.8 °F80 %29.74 in0.8 miWest (270°)19.6 mph33.4 mph0.00 inSnowLight Snow
5:45 PM21.2 °F15.8 °F80 %29.74 in1.2 miWest (270°)16.1 mph26.5 mph0.00 inSnowLight Snow
5:53 PM21.0 °F15.1 °F78 %29.78 in2.0 miWest (270°)15.0 mph24.2 mph0.00 inSnowLight Snow
6:05 PM21.2 °F15.8 °F80 %29.74 in8.0 miWest (270°)11.5 mph0.00 inOvercast
6:31 PM21.2 °F15.8 °F80 %29.75 in10.0 miWest (260°)9.2 mph0.00 inOvercast
6:46 PM21.2 °F15.8 °F80 %29.75 in1.5 miWest (280°)11.5 mph0.00 inSnowLight Snow
6:50 PM21.2 °F15.8 °F80 %29.76 in0.8 miWest (260°)16.1 mph23.0 mph0.01 inSnowLight Snow
6:53 PM21.9 °F16.0 °F78 %29.79 in0.8 miWest (270°)19.6 mph28.8 mph0.01 inSnowLight Snow
6:56 PM21.2 °F15.8 °F80 %29.76 in1.2 miWest (260°)16.1 mph28.8 mph0.00 inSnowLight Snow
7:00 PM21.2 °F15.8 °F80 %29.76 in3.0 miWest (260°)17.3 mph28.8 mph0.00 inSnowLight Snow
7:11 PM21.2 °F15.8 °F80 %29.76 in1.8 miWest (260°)13.8 mph0.00 inSnowLight Snow
7:20 PM21.2 °F15.8 °F80 %29.76 in0.8 miWest (260°)16.1 mph23.0 mph0.00 inSnowLight Snow
7:38 PM21.2 °F17.6 °F86 %29.76 in0.8 miWSW (250°)13.8 mph0.00 inSnowLight Snow
7:45 PM21.2 °F17.6 °F86 %29.77 in0.5 miWest (260°)13.8 mph0.00 inFog-SnowSnow
7:53 PM21.0 °F16.0 °F81 %29.81 in0.5 miWest (260°)13.8 mph0.00 inSnowSnow
8:07 PM21.2 °F15.8 °F80 %29.78 in1.2 miWest (260°)13.8 mph0.01 inSnowLight Snow
8:16 PM21.2 °F15.8 °F80 %29.78 in1.2 miWest (260°)11.5 mph0.01 inSnowLight Snow
8:19 PM21.2 °F15.8 °F80 %29.78 in0.8 miWest (260°)12.7 mph0.01 inSnowLight Snow
8:35 PM21.2 °F15.8 °F80 %29.78 in0.5 miWest (280°)12.7 mph19.6 mph0.01 inSnowSnow
8:53 PM19.9 °F16.0 °F85 %29.83 in0.5 miWest (270°)17.3 mph0.02 inFog-SnowSnow
9:20 PM19.4 °F15.8 °F86 %29.80 in1.0 miWest (270°)15.0 mph0.00 inSnowLight Snow
9:22 PM19.4 °F15.8 °F86 %29.80 in1.2 miWest (270°)15.0 mph0.00 inSnowLight Snow
9:29 PM19.4 °F14.0 °F80 %29.80 in3.0 miWest (270°)17.3 mph0.00 inSnowLight Snow
9:32 PM19.4 °F14.0 °F80 %29.80 in1.8 miWest (270°)16.1 mph0.00 inSnowLight Snow
9:35 PM19.4 °F14.0 °F80 %29.80 in0.8 miWest (260°)21.9 mph27.6 mph0.00 inSnowLight Snow
9:53 PM19.0 °F14.0 °F81 %29.85 in0.8 miWest (280°)16.1 mph27.6 mph0.00 inSnowLight Snow
9:58 PM19.4 °F12.2 °F74 %29.81 in1.2 miWest (270°)16.1 mph21.9 mph0.00 inSnowLight Snow
10:06 PM19.4 °F12.2 °F74 %29.81 in2.5 miWest (270°)16.1 mph21.9 mph0.00 inSnowLight Snow
10:23 PM19.4 °F14.0 °F80 %29.81 in1.2 miWSW (250°)15.0 mph0.00 inSnowLight Snow
10:29 PM19.4 °F14.0 °F80 %29.81 in2.5 miWSW (250°)11.5 mph0.00 inSnowLight Snow
10:36 PM19.4 °F12.2 °F74 %29.81 in4.0 miWSW (250°)17.3 mph23.0 mph0.00 inSnowLight Snow
10:42 PM19.4 °F12.2 °F74 %29.81 in2.5 miWest (260°)13.8 mph23.0 mph0.00 inSnowLight Snow
11:21 PM19.4 °F10.4 °F68 %29.81 in1.5 miWest (270°)10.4 mph0.00 inSnowLight Snow
11:24 PM19.4 °F12.2 °F74 %29.81 in1.0 miWest (270°)9.2 mph0.00 inSnowLight Snow
11:33 PM17.6 °F12.2 °F79 %29.81 in0.5 miWest (260°)11.5 mph0.00 inSnowSnow
11:43 PM17.6 °F12.2 °F79 %29.81 in1.2 miWSW (250°)12.7 mph0.01 inSnowLight Snow
11:50 PM17.6 °F12.2 °F79 %29.81 in1.0 miWest (260°)12.7 mph0.01 inSnowLight Snow
11:53 PM18.0 °F12.9 °F81 %29.85 in0.8 miWest (260°)11.5 mph0.01 inSnowLight Snow
Hourly data recorded from KHZY, located miles away from Dorset, Ohio







STORIES FROM OUR PARTNERS